Flag for Canada Weather past 2 weeks in Quispamsis, New Brunswick, Canada

Now
55 °F

Mostly cloudy.


Feels Like: 51 °F
Forecast: 55 / 69 °F
Wind: 18 mph from Southwest

Location: Saint John

Current Time: Sep 20, 2014 at 9:25:43 PM

Latest Report: Sep 20, 2014 at 9:00 PM


Visibility: 15 mi

Pressure: 30.16 "Hg

Humidity: 88%

Dew point: 52 °F

Location of QuispamsisLocation

Historic Weather in Quispamsis — Graph

°F

Quispamsis temperature yesterday

Maximum temperature yesterday: 54 °F (at 3:00 PM)
Minimum temperature yesterday: 28 °F (at 11:00 PM)
Average temperature yesterday: 42 °F

Past Weeks' High & Low Weather Summary

 TemperatureHumidityPressure
High70 °F (Sep 7, 5:00 PM)100% (Sep 5, 9:00 PM)30.49 "Hg (Sep 5, 9:00 PM)
Low28 °F (Sep 19, 11:00 PM)24% (Sep 19, 6:00 PM)29.71 "Hg (Sep 6, 6:00 PM)
Average53 °F79%30.10 "Hg
* Reported Sep 5 8:00 PM — Sep 20 8:00 PM, Quispamsis, Weather by CustomWeather, © 2014

Note: Actual official high and low records may vary slightly from our data, if they occured in-between our weather recording intervals... More about our weather records

Advertising

Quispamsis weather history for previous 24 hours

 ConditionsComfort  
Time TempWeatherWind HumidityBarometerVisibility
8:00 PM
Sep 20
55 °FMostly cloudy.20 mph82%30.17 "Hg15 mi
7:00 PM55 °FMostly cloudy.18 mph82%30.18 "Hg15 mi
6:47 PM55 °FMostly cloudy.17 mph82%30.19 "Hg15 mi
6:00 PM55 °FMostly cloudy.21 mph77%30.19 "Hg15 mi
5:00 PM55 °FMostly cloudy.26 mph72%30.20 "Hg15 mi
4:00 PM57 °FBroken clouds.25 mph63%30.22 "Hg15 mi
3:00 PM57 °FPartly sunny.28 mph59%30.23 "Hg15 mi
2:00 PM55 °FBroken clouds.26 mph63%30.26 "Hg15 mi
10:00 AM52 °FPartly sunny.22 mph54%30.33 "Hg15 mi
9:00 AM52 °FPartly sunny.21 mph50%30.34 "Hg15 mi
8:00 AM48 °FPassing clouds.13 mph62%30.35 "Hg15 mi
7:00 AM45 °FPassing clouds.10 mph71%30.36 "Hg15 mi
6:00 AM37 °FPassing clouds.2 mph87%30.38 "Hg15 mi
5:00 AM45 °FPassing clouds.8 mph76%30.37 "Hg15 mi
4:00 AM39 °FOvercast.5 mph81%30.38 "Hg15 mi
3:00 AM36 °FPassing clouds.No wind87%30.40 "Hg15 mi
2:00 AM34 °FPassing clouds.No wind93%30.40 "Hg15 mi
1:00 AM32 °FPassing clouds.No wind93%30.41 "Hg15 mi
12:00 AM30 °FPassing clouds.No wind93%30.40 "Hg15 mi
11:00 PM
Sep 19
28 °FClear.No wind93%30.40 "Hg15 mi
10:00 PM30 °FClear.No wind93%30.40 "Hg15 mi
9:00 PM30 °FClear.No wind93%30.39 "Hg15 mi
Weather by CustomWeather, © 2014

See weather overviewHow to use our weather pages